TimeMDT,TemperatureF,Dew PointF,Humidity,Sea Level PressureIn,VisibilityMPH,Wind Direction,Wind SpeedMPH,Gust SpeedMPH,PrecipitationIn,Events,Conditions,WindDirDegrees,DateUTC
12:55 AM,57.0,35.1,44,29.90,10.0,Calm,Calm,-,N/A,,Scattered Clouds,0,2013-05-13 06:55:00
1:55 AM,54.0,36.0,51,29.87,10.0,Calm,Calm,-,N/A,,Partly Cloudy,0,2013-05-13 07:55:00
2:55 AM,59.0,37.0,44,29.83,10.0,SSW,6.9,-,N/A,,Scattered Clouds,200,2013-05-13 08:55:00
3:55 AM,55.9,37.9,51,29.82,10.0,Calm,Calm,-,N/A,,Clear,0,2013-05-13 09:55:00
4:55 AM,52.0,37.0,57,29.81,10.0,Calm,Calm,-,N/A,,Clear,0,2013-05-13 10:55:00
5:55 AM,54.0,39.0,57,29.81,10.0,West,6.9,-,N/A,,Unknown,260,2013-05-13 11:55:00
6:55 AM,61.0,42.1,50,29.83,10.0,West,9.2,-,N/A,,Clear,280,2013-05-13 12:55:00
7:55 AM,66.0,44.1,45,29.84,10.0,West,15.0,-,N/A,,Clear,260,2013-05-13 13:55:00
8:55 AM,77.0,46.9,34,29.83,10.0,West,13.8,-,N/A,,Clear,260,2013-05-13 14:55:00
9:55 AM,86.0,45.0,24,29.82,10.0,NW,17.3,-,N/A,,Clear,320,2013-05-13 15:55:00
10:55 AM,89.1,45.0,22,29.83,10.0,NNW,16.1,-,N/A,,Clear,330,2013-05-13 16:55:00
11:55 AM,90.0,44.1,20,29.83,10.0,NNW,11.5,-,N/A,,Clear,340,2013-05-13 17:55:00
12:55 PM,91.9,43.0,18,29.81,10.0,WNW,18.4,27.6,N/A,,Clear,300,2013-05-13 18:55:00
2:55 PM,95.0,42.1,16,29.79,10.0,NNW,18.4,23.0,N/A,,Clear,330,2013-05-13 20:55:00
3:55 PM,95.0,42.1,16,29.78,10.0,NNW,12.7,18.4,N/A,,Clear,330,2013-05-13 21:55:00
4:55 PM,93.0,41.0,16,29.78,10.0,NNW,10.4,19.6,N/A,,Clear,330,2013-05-13 22:55:00
6:55 PM,89.1,45.0,22,29.74,10.0,Calm,Calm,-,N/A,,Clear,0,2013-05-14 00:55:00
7:55 PM,82.0,45.0,27,29.73,10.0,ESE,3.5,-,N/A,,Clear,120,2013-05-14 01:55:00
8:55 PM,73.0,46.0,38,29.73,10.0,SE,4.6,-,N/A,,Clear,130,2013-05-14 02:55:00
9:55 PM,72.0,45.0,38,29.71,10.0,SE,4.6,-,N/A,,Clear,130,2013-05-14 03:55:00
10:55 PM,73.0,44.1,35,29.68,10.0,SE,5.8,-,N/A,,Clear,130,2013-05-14 04:55:00
11:55 PM,70.0,44.1,39,29.66,10.0,South,10.4,-,N/A,,Clear,170,2013-05-14 05:55:00